Weather History for Bozeman, MT

Change the Weather History Date:

Tuesday, May 6, 2014

  Actual Average Record
Temperature  
Mean Temperature 44 °F 51 °F  
Max Temperature 51 °F 66 °F 86 °F (1966)
Min Temperature 36 °F 36 °F 20 °F (1999)
Degree Days  
Heating Degree Days 21    
Month to date heating degree days 90  
Since 1 July heating degree days 7748  
Cooling Degree Days 0    
Month to date cooling degree days 0  
Year to date cooling degree days 0  
Moisture  
Dew Point 36 °F    
Average Humidity 69    
Maximum Humidity 92    
Minimum Humidity 46    
Precipitation  
Precipitation 0.07 in 0.06 in 0.97 in (1988)
Month to date precipitation 0.24 0.38  
Year to date precipitation 3.62 3.83  
Snow  
Snow 0.00 in 0.20 in 9.00 in (1965)
Month to date snowfall 0.0 0.8  
Since 1 July snowfall 32.3 38.3  
Snow Depth 0.00 in    
Sea Level Pressure  
Sea Level Pressure 29.83 in    
Wind  
Wind Speed 6 mph (West)    
Max Wind Speed 16 mph    
Max Gust Speed 20 mph    
Visibility 10 miles    
Events Rain    
T = Trace of Precipitation, MM = Missing Value Source: NWS Daily Summary

Daily Weather History Graph

Daily Weather History Graph

Search for Another Location

Airport:

Trip Planner

Search our weather history database for the weather conditions in past years. The results will help you decide how hot, cold, wet, or windy it might be!

Date:

Astronomy

May. 06, 2014 Rise Set
Actual Time 6:04 AM MDT 8:38 PM MDT
Civil Twilight 5:31 AM MDT 9:12 PM MDT
Nautical Twilight 4:48 AM MDT 9:54 PM MDT
Astronomical Twilight 4:00 AM MDT 10:43 PM MDT
Moon 12:28 PM MDT (5/6) 1:56 AM MDT (5/6)
Length of Visible Light 15h 41m
Length of Day
14h 33m
Waxing Crescent, 46% of the Moon is Illuminated
May 6
Waxing Crescent
May 6
First Quarter
May 14
Full
May 21
Last Quarter
May 28
New

Hourly Weather History & Observations

Time (MDT) Temp. Windchill Dew Point Humidity Pressure Visibility Wind Dir Wind Speed Gust Speed Precip Events Conditions
12:07 AM 44.1 °F 40.1 °F 41.0 °F 89% 29.85 in 10.0 mi WNW 6.9 mph - 0.01 in Rain Light Rain
12:56 AM 43.0 °F 39.5 °F 39.9 °F 89% 29.83 in 10.0 mi SW 5.8 mph - 0.01 in   Overcast
5:56 AM 41.0 °F - 37.0 °F 86% 29.82 in 10.0 mi Calm Calm - N/A   Overcast
6:56 AM 41.0 °F - 37.9 °F 89% 29.83 in 10.0 mi Calm Calm - N/A   Overcast
7:56 AM 42.1 °F - 37.9 °F 85% 29.82 in 10.0 mi Calm Calm - N/A   Overcast
8:56 AM 43.0 °F - 37.9 °F 82% 29.83 in 10.0 mi Calm Calm - N/A   Overcast
9:56 AM 45.0 °F 41.2 °F 37.9 °F 76% 29.82 in 10.0 mi WNW 6.9 mph - N/A   Overcast
10:56 AM 46.9 °F - 37.0 °F 68% 29.80 in 10.0 mi West 6.9 mph - N/A   Overcast
11:56 AM 48.9 °F - 34.0 °F 56% 29.78 in 10.0 mi WNW 3.5 mph - N/A   Overcast
12:56 PM 50.0 °F - 30.0 °F 46% 29.78 in 10.0 mi Calm Calm - N/A   Overcast
2:56 PM 48.0 °F - 36.0 °F 63% 29.78 in 10.0 mi South 12.7 mph - N/A   Overcast
3:56 PM 46.0 °F 41.9 °F 35.1 °F 66% 29.81 in 10.0 mi NNE 8.1 mph - 0.00 in   Overcast
4:56 PM 46.0 °F 44.8 °F 35.1 °F 66% 29.81 in 10.0 mi Variable 3.5 mph - 0.00 in   Overcast
5:45 PM 45.0 °F 39.7 °F 37.9 °F 76% 29.81 in 7.0 mi SE 10.4 mph - 0.00 in Rain Light Rain
5:56 PM 43.0 °F 37.7 °F 39.0 °F 86% 29.83 in 9.0 mi SSE 9.2 mph - 0.00 in Rain Light Rain
6:20 PM 43.0 °F 38.2 °F 37.9 °F 82% 29.82 in 10.0 mi SSE 8.1 mph - 0.01 in Rain Light Rain
6:56 PM 43.0 °F 38.8 °F 37.9 °F 82% 29.84 in 10.0 mi SSE 6.9 mph - 0.01 in   Overcast
7:56 PM 42.1 °F 36.1 °F 37.9 °F 85% 29.87 in 10.0 mi SSE 10.4 mph - 0.00 in   Mostly Cloudy
8:56 PM 41.0 °F 35.2 °F 35.6 °F 81% 29.86 in 10.0 mi NW 9.2 mph - N/A Rain Light Rain
9:56 PM 37.9 °F 31.5 °F 34.0 °F 86% 29.91 in 10.0 mi North 9.2 mph - 0.01 in Rain Light Rain
10:39 PM 37.0 °F 29.8 °F 33.1 °F 86% 29.89 in 10.0 mi NNW 10.4 mph - 0.02 in   Overcast
10:56 PM 37.0 °F 30.4 °F 32.0 °F 82% 29.91 in 10.0 mi NNW 9.2 mph - 0.02 in Rain Light Rain
11:56 PM 37.4 °F 32.1 °F 33.8 °F 87% 29.89 in 10.0 mi West 6.9 mph - N/A Rain Light Rain